Wind_Speed
2 5 5 3 0 2 2 2 4 4 3 3 3 5 5 4 4 4 5 4 4 5 3 1 4 4 2 0 4 5 5 7 8 8 7 6 7 7 9 10 11 10 8 11 13 14 15 14 12 12 11 11 12 13 15 15 14 13 12 12 11 11 12 10 9 8 7 5 4 4 4 4 5 4 5 4 4 4 5 4 4 3 3 2 2 2
3 6 2 1 3 3 1 1 1 1 2 4 6 6 5 6 3 5 4 3 3 5 3 2 6 6 3 0 4 6 6 8 9 9 9 8 8 7 8 10 10 9 8 10 12 13 16 15 14 13 12 13 14 15 16 15 15 15 14 13 12 12 13 12 10 9 7 5 4 4 5 5 5 5 5 5 5 5 5 5 4 4 3 3 3 3
6 5 3 5 2 3 2 3 4 3 3 5 5 5 5 4 3 5 5 3 1 4 3 0 6 7 3 2 4 6 7 7 7 8 8 8 9 8 8 9 9 10 9 10 11 13 16 17 15 14 14 15 16 15 16 16 15 16 15 14 13 13 13 12 11 9 7 6 5 5 5 5 5 5 5 5 6 5 5 5 5 4 3 3 4 4
4 3 7 5 3 4 4 4 5 4 4 5 5 6 4 2 3 3 6 5 1 2 4 3 6 7 6 5 5 6 6 4 4 6 7 7 8 8 8 8 9 11 12 12 12 12 15 17 17 17 16 17 16 16 17 17 17 17 16 15 14 14 14 12 12 9 7 8 7 6 6 6 6 6 5 6 6 5 5 6 5 5 5 5 5 5
0 7 6 3 3 5 4 6 7 6 5 5 5 7 4 2 4 4 2 3 2 3 3 5 7 7 7 8 7 7 6 6 6 6 6 6 7 7 8 9 9 10 11 11 12 13 14 18 19 20 19 18 18 18 18 19 19 18 18 17 15 15 14 13 13 11 9 10 10 8 8 7 7 7 6 6 6 6 5 5 5 6 6 6 6 6
2 6 2 3 4 5 5 6 7 6 5 5 7 9 6 3 4 4 1 3 5 5 2 4 7 4 4 7 6 6 7 8 7 6 7 6 6 7 8 9 9 10 11 11 12 13 15 18 20 20 20 20 20 20 19 20 20 19 19 18 16 16 15 14 14 13 11 10 11 11 10 9 8 7 6 6 6 6 6 6 6 6 7 6 6 6
3 4 2 3 4 5 6 6 6 6 7 4 6 8 8 6 5 5 4 4 6 3 2 2 7 4 3 5 5 5 7 8 8 6 5 5 6 7 8 8 9 9 10 11 12 13 14 17 18 20 21 22 22 20 19 18 19 20 19 19 18 17 16 15 16 15 13 11 11 12 11 10 9 8 7 7 7 6 6 7 6 6 6 6 6 6
4 5 4 4 5 6 7 5 5 8 8 1 3 6 9 7 6 6 6 5 5 3 2 5 6 6 5 4 5 6 7 8 9 7 5 4 5 5 6 6 7 8 9 9 11 13 13 15 18 20 21 22 22 20 19 19 20 21 19 20 20 18 17 17 18 17 14 12 12 12 10 9 9 8 8 8 8 7 7 7 7 6 6 6 6 6
4 4 5 5 6 7 5 1 3 9 7 1 2 3 6 5 5 5 6 6 3 3 5 6 5 6 7 3 5 6 8 9 9 6 5 4 4 4 4 5 6 7 8 9 10 11 13 15 18 19 19 21 21 20 20 19 21 22 20 21 21 19 18 18 20 19 15 14 13 12 11 10 9 8 8 9 8 8 8 8 7 7 7 7 6 6
2 1 1 5 6 5 1 5 1 7 4 2 3 4 4 4 4 5 6 6 3 5 8 5 4 5 6 4 5 6 6 6 5 4 3 3 2 1 1 3 5 6 6 8 10 10 11 14 17 18 18 20 21 21 19 18 20 21 21 22 22 20 18 19 22 21 17 15 14 13 12 11 10 9 8 8 9 8 8 8 8 7 7 7 7 7
3 2 0 5 6 3 3 4 2 2 1 4 6 6 6 6 5 5 5 4 4 7 6 3 4 5 6 5 4 2 1 1 1 1 1 2 2 3 3 4 5 5 6 6 8 10 11 12 14 16 17 19 20 20 19 18 20 22 22 22 21 20 19 19 23 23 19 17 16 14 14 13 12 11 10 9 9 9 9 9 8 8 7 8 8 8
5 6 4 4 4 2 2 3 2 1 3 5 6 6 6 5 4 5 5 4 6 7 1 4 4 5 7 4 2 3 4 3 2 1 2 4 5 6 6 7 7 7 7 6 7 7 9 11 12 14 16 17 18 19 19 19 20 21 21 21 21 22 21 20 23 24 20 18 17 16 14 14 14 13 12 10 10 10 9 9 9 8 8 8 8 8
5 5 4 4 5 5 7 5 4 4 6 6 7 6 6 6 5 6 6 5 6 4 3 5 3 5 7 3 4 5 4 3 1 2 3 5 6 7 7 7 6 6 7 6 5 5 6 8 11 14 15 17 18 19 20 19 19 20 20 21 22 22 21 20 22 24 22 20 19 17 15 14 13 13 12 11 10 10 9 9 9 9 8 9 9 9
4 4 6 5 5 5 8 7 4 5 6 8 7 6 7 6 6 7 7 6 7 2 5 4 2 5 7 1 5 4 3 3 2 1 2 4 5 6 6 7 6 6 6 6 4 3 3 5 8 11 14 15 15 17 19 18 18 19 18 20 21 21 20 20 21 22 22 21 20 18 15 14 13 13 13 11 10 11 10 9 10 9 8 9 10 10
5 3 4 3 3 4 8 7 5 3 5 7 6 6 7 6 6 7 6 6 7 2 4 5 3 5 5 2 5 4 4 3 2 2 2 2 3 4 5 6 6 6 6 5 5 4 1 3 5 8 10 11 11 13 15 16 17 17 18 19 20 20 20 20 21 21 22 21 20 19 17 15 13 12 13 13 11 12 11 10 10 10 9 9 10 10
7 4 4 4 2 2 5 4 4 6 5 5 4 7 7 5 6 5 2 3 5 4 2 4 4 4 1 4 5 5 5 5 4 3 3 3 4 4 4 5 6 7 7 6 5 5 4 3 5 7 8 8 9 11 12 13 15 16 16 17 18 18 18 20 21 21 21 21 19 19 19 18 16 14 13 13 12 13 12 12 11 11 10 10 10 11
6 3 6 5 3 2 2 2 3 6 5 2 5 7 3 2 6 6 2 2 1 7 6 5 6 5 3 4 6 8 7 7 6 5 4 4 5 5 5 6 7 7 8 8 7 6 6 5 5 6 6 7 8 10 11 12 13 14 15 15 16 16 16 17 20 20 20 20 18 19 21 20 18 17 15 13 13 14 14 14 13 12 12 11 11 12
4 5 3 3 2 4 1 3 4 4 5 4 5 3 1 1 5 6 5 3 4 8 7 6 8 8 6 4 7 10 9 9 7 6 6 5 5 6 7 7 7 8 8 8 8 8 7 7 7 7 6 5 5 6 8 10 11 12 14 14 15 16 16 16 17 18 19 20 20 19 21 21 20 19 17 15 14 15 16 16 15 13 13 14 13 14
3 7 3 3 1 3 4 4 5 5 5 6 4 1 2 5 6 5 6 7 7 8 7 8 10 9 8 5 7 11 11 10 9 8 7 6 6 6 6 7 8 8 7 8 9 9 8 9 10 9 7 7 6 4 5 6 6 8 10 10 11 13 14 14 14 15 17 19 20 19 18 20 20 19 18 16 15 16 16 17 17 15 15 15 15 15
1 5 2 4 3 1 4 6 7 5 6 5 4 4 4 5 6 6 6 6 8 8 8 9 9 7 7 5 7 11 12 11 10 9 7 6 6 5 5 6 7 8 8 8 9 9 10 11 12 11 9 10 9 7 6 6 4 3 4 6 7 8 10 11 12 12 13 15 17 16 16 17 19 20 18 16 16 16 16 17 17 17 17 16 16 16
2 3 4 3 4 3 5 4 4 4 2 4 6 7 6 4 4 5 7 7 7 8 8 8 10 7 2 2 4 9 11 11 10 9 7 6 6 6 6 6 6 7 8 8 9 9 10 12 13 12 11 12 12 10 9 8 7 5 3 2 3 5 6 9 10 11 12 13 15 15 16 17 18 19 18 16 16 16 16 15 16 17 17 18 18 18
2 3 5 5 3 6 2 4 4 6 5 5 5 7 7 7 6 7 9 8 7 8 8 8 10 6 2 3 1 6 10 10 9 9 8 7 7 7 6 6 7 7 8 8 9 9 10 12 14 14 14 14 15 14 13 12 11 8 6 4 1 2 3 5 7 9 11 12 13 15 16 17 18 18 18 17 17 17 16 15 16 17 17 17 18 20
2 3 6 7 7 8 2 6 2 3 4 6 6 6 7 6 7 9 9 8 6 8 7 8 10 4 4 3 2 6 8 8 8 8 8 8 7 7 7 7 7 7 7 8 9 9 10 12 14 15 16 16 17 16 15 14 13 12 11 8 5 4 3 0 2 5 8 9 11 12 13 15 17 17 17 17 18 17 17 16 16 16 17 17 18 19
0 3 6 7 7 8 3 3 3 2 3 7 6 5 5 6 7 8 8 7 7 8 7 7 10 4 4 4 3 5 6 7 7 7 9 8 7 7 7 7 7 7 7 8 8 8 10 12 13 14 15 16 16 16 15 15 14 14 13 11 9 9 10 6 2 1 4 7 8 9 10 12 13 14 16 17 17 17 16 16 15 15 17 17 17 18
2 4 4 6 6 6 6 5 5 6 6 6 6 3 3 6 7 6 7 7 7 11 12 10 10 5 4 4 4 5 6 6 7 6 7 8 7 7 7 6 6 6 6 7 8 8 9 10 11 12 13 13 14 14 14 14 14 13 13 11 10 12 13 11 8 6 3 4 6 7 8 9 10 12 14 16 17 17 15 15 15 15 16 17 17 17
4 5 4 5 7 6 7 6 3 2 4 4 4 3 3 6 7 5 7 8 8 11 12 10 10 5 5 7 6 6 6 7 8 7 7 7 7 7 6 5 5 5 6 7 7 7 8 9 10 11 11 11 11 11 11 11 12 12 11 11 11 12 13 12 12 11 8 6 5 6 7 8 9 10 12 15 18 17 15 14 16 17 17 17 17 17
4 5 6 9 9 8 9 8 4 6 7 7 6 6 5 4 6 6 7 8 9 10 10 10 12 9 5 8 9 8 8 8 8 9 9 8 8 7 6 5 5 5 5 6 6 6 7 8 9 10 10 10 9 9 9 10 10 10 9 9 9 9 11 11 11 11 10 9 8 6 7 7 7 8 12 15 18 17 15 15 17 18 17 17 17 18
5 5 8 11 12 11 13 12 8 7 10 12 11 11 10 7 8 9 9 10 10 9 10 10 11 12 10 8 9 9 8 8 9 10 10 9 9 8 6 6 5 5 5 5 5 6 6 7 7 8 8 8 8 8 8 8 8 8 7 8 7 8 8 8 9 8 8 8 8 7 8 8 7 7 10 13 15 16 16 16 18 18 18 17 17 18
5 6 8 10 12 13 13 12 11 9 11 13 13 13 13 12 11 11 12 13 12 10 11 11 12 12 10 8 9 8 9 9 10 10 10 9 9 9 8 8 7 6 5 5 5 5 6 6 6 6 7 7 7 8 7 7 7 7 6 7 7 7 7 7 7 7 6 6 5 6 7 8 8 8 9 9 11 12 14 16 17 18 18 18 18 17
4 5 6 9 13 13 13 13 13 12 13 14 15 15 15 15 15 14 14 15 15 15 15 14 15 12 9 9 10 6 6 8 7 8 9 10 10 10 9 9 8 6 5 5 4 4 5 5 5 6 6 7 8 8 7 7 7 7 7 7 8 8 8 8 8 7 7 7 6 6 7 7 8 8 9 9 9 9 11 13 15 16 18 18 18 17
2 3 2 6 11 12 13 14 14 14 15 15 16 16 16 15 15 15 14 13 14 15 15 14 14 11 8 11 10 2 2 5 7 8 10 10 10 10 10 9 7 7 6 5 5 4 4 4 5 5 6 7 7 7 7 7 7 7 7 7 8 8 8 8 8 7 8 8 8 8 8 8 8 8 9 9 9 9 9 10 11 14 16 16 17 17
3 5 3 6 9 10 11 13 13 13 15 17 17 16 16 16 14 13 12 11 11 12 13 14 13 9 7 11 11 6 4 7 9 10 10 9 9 10 10 9 8 7 6 5 5 4 4 4 4 5 6 6 6 6 6 6 7 6 6 7 7 7 7 7 7 7 7 8 9 10 9 9 9 10 10 9 10 10 10 10 10 11 13 15 16 16
4 6 5 7 9 8 8 8 8 9 11 12 10 10 13 15 16 15 14 13 13 12 11 11 10 6 4 5 9 10 10 11 11 9 8 8 9 10 9 8 8 7 5 4 3 3 3 3 4 5 5 6 5 6 7 7 7 6 6 6 6 6 7 7 7 7 7 8 10 10 10 10 10 10 10 10 10 10 10 10 11 11 11 13 14 15
5 6 6 6 7 8 7 4 4 8 9 5 2 2 4 7 10 12 13 12 11 9 8 9 9 7 5 5 7 9 9 8 5 3 4 5 7 8 8 7 7 6 4 3 2 2 3 4 4 5 5 6 6 7 8 7 7 6 6 6 7 7 8 8 8 7 8 9 10 10 10 10 10 11 11 11 11 11 10 11 11 12 12 12 13 15
5 6 6 5 6 7 6 4 6 9 4 2 5 4 2 3 5 8 8 6 5 6 7 9 9 8 7 6 6 6 4 1 1 3 4 4 4 5 7 7 7 6 4 1 2 3 4 5 5 6 6 6 7 7 7 7 7 7 7 7 8 9 9 10 9 10 10 10 10 10 10 10 10 11 11 11 11 11 11 11 12 12 12 12 14 15
7 6 6 6 6 6 5 6 8 5 2 1 1 2 2 3 4 5 5 1 4 4 4 5 5 4 3 2 2 2 2 3 4 4 5 5 4 2 3 3 3 4 3 2 3 4 5 6 7 7 7 7 8 8 8 8 8 9 9 9 10 10 11 11 11 11 12 11 11 10 10 10 11 11 11 11 11 12 12 12 12 13 12 12 14 15
8 7 6 6 7 7 7 8 8 8 8 7 3 3 3 3 3 4 5 1 4 4 4 4 3 3 2 1 0 0 3 5 6 5 6 7 6 4 2 2 1 1 3 4 5 6 7 7 7 8 8 8 9 10 10 10 10 10 10 10 10 11 12 12 12 13 14 13 12 11 11 12 12 12 12 12 12 12 12 12 12 13 12 13 14 15
6 6 5 6 6 6 8 9 8 10 8 2 3 5 3 2 3 4 6 3 3 5 5 4 4 4 3 2 2 1 4 7 7 5 6 5 5 4 3 2 2 3 4 6 7 7 8 8 9 10 10 10 11 11 11 11 11 11 11 11 11 12 12 12 13 15 15 14 13 13 13 13 14 14 14 13 13 13 13 12 12 12 12 13 15 15
5 5 6 7 7 6 8 8 8 9 5 3 5 4 4 3 2 3 5 4 2 6 6 5 5 5 4 4 4 3 5 8 8 5 5 4 4 4 4 4 4 6 7 7 8 9 9 10 11 11 11 12 12 12 11 12 13 13 13 12 12 12 12 13 14 15 15 14 14 14 14 15 15 15 15 15 14 13 13 13 12 12 12 13 15 15
6 5 6 8 8 8 8 8 7 7 2 4 5 5 6 4 2 4 6 3 4 8 8 7 7 7 6 5 5 5 5 6 5 1 5 7 6 6 6 7 8 9 10 10 10 10 12 13 13 13 13 14 14 14 14 14 14 14 14 13 13 14 13 14 15 16 15 15 14 15 15 15 15 16 16 15 15 14 14 13 12 12 13 13 13 13
6 5 6 7 8 9 9 8 8 6 1 5 5 6 5 3 3 6 5 2 5 9 9 8 9 8 7 7 6 5 5 5 6 7 8 8 8 8 10 11 12 13 13 14 13 13 14 15 14 15 16 16 16 16 16 16 16 16 15 15 15 15 15 16 17 16 16 16 15 15 15 16 16 16 16 16 16 15 14 13 13 13 13 13 13 14
5 4 6 7 7 8 7 7 8 5 3 6 7 5 2 3 4 3 3 4 7 9 9 9 9 9 8 8 7 7 8 9 9 10 10 10 11 11 12 14 15 16 16 17 17 16 16 16 15 16 17 17 17 17 16 17 17 17 16 17 17 17 16 17 17 17 17 17 16 16 16 16 17 17 17 16 16 16 15 14 13 12 12 13 14 17
3 4 5 6 6 6 7 7 8 5 2 6 7 4 1 3 4 5 6 8 8 9 8 8 8 8 9 9 8 8 10 9 10 10 10 11 12 12 14 15 16 17 18 19 19 19 18 18 18 18 18 17 17 17 17 17 18 18 18 19 18 17 18 18 18 18 18 18 17 17 17 17 17 17 17 17 16 17 15 12 10 10 12 14 16 20
4 4 6 5 3 4 6 6 4 2 2 4 5 4 3 5 6 7 9 9 9 8 8 7 7 8 9 9 9 10 10 10 10 10 10 10 11 11 13 15 16 18 19 19 20 20 19 20 21 20 20 19 18 18 17 18 19 20 20 20 19 19 19 19 18 18 18 18 18 17 17 17 18 19 19 18 17 16 12 10 9 9 13 18 21 23
1 2 5 5 4 5 7 7 7 7 6 6 6 7 8 9 8 9 9 9 9 9 8 8 9 9 9 10 11 12 11 11 12 11 11 12 12 13 14 16 18 20 21 21 22 21 20 21 22 22 22 21 20 19 19 19 20 21 22 21 20 20 20 20 19 19 19 19 18 18 18 18 18 19 19 17 15 13 11 11 11 11 16 22 26 25
3 3 5 6 6 8 9 9 8 9 10 10 9 9 10 10 8 8 9 9 10 10 10 10 11 12 12 12 12 12 12 12 12 13 14 14 14 15 17 18 20 22 22 22 22 21 21 23 24 24 23 23 21 21 21 21 22 23 23 22 21 21 21 20 20 20 19 19 19 19 19 19 18 18 16 13 13 13 12 13 14 14 18 24 28 25
3 2 4 7 8 8 7 6 7 10 11 12 12 12 11 11 9 9 10 11 11 12 12 12 13 14 14 13 13 14 15 15 15 15 15 14 15 16 16 18 20 21 22 22 21 21 22 22 23 23 23 23 22 21 21 22 23 23 23 22 21 21 21 20 21 21 20 20 19 19 19 18 17 16 12 9 12 13 13 15 17 18 21 26 28 24
2 3 4 8 8 8 9 10 12 14 14 13 12 11 10 10 11 12 13 13 14 14 14 14 14 14 13 13 14 16 16 17 17 17 15 15 15 15 16 18 20 21 21 21 22 22 22 23 24 24 24 24 23 22 22 23 23 23 23 23 22 21 21 21 22 22 21 20 19 18 17 16 15 13 10 10 12 13 14 17 19 20 23 27 27 24
4 4 6 7 8 9 10 12 12 12 12 12 12 12 11 12 13 15 16 16 17 17 16 16 17 16 15 15 15 16 17 18 17 17 17 16 15 15 18 20 22 22 22 22 23 22 22 23 24 24 25 25 24 23 24 24 24 24 24 24 22 22 22 21 21 22 22 21 20 18 17 15 12 11 11 11 13 15 17 20 23 23 22 23 23 23
5 6 6 6 7 8 8 10 11 11 11 12 13 15 15 15 16 17 17 17 18 17 17 17 18 18 19 19 17 16 17 17 16 17 17 15 15 18 20 22 22 23 23 23 23 23 24 25 25 25 26 26 25 25 25 25 25 25 25 24 23 21 21 21 22 22 22 21 20 18 15 12 11 12 14 18 21 22 23 23 24 23 23 22 20 19
5 6 6 7 8 9 10 12 12 12 12 13 15 17 17 16 16 17 17 17 17 17 17 17 18 18 18 18 18 17 15 15 18 18 17 16 19 22 23 23 23 23 23 23 24 24 26 26 26 27 28 27 27 26 26 26 26 26 25 24 22 22 22 21 20 20 19 19 18 16 12 11 12 16 20 22 22 22 21 20 19 20 23 24 21 19
Wind_Direction
259 238 225 243 20 57 44 339 336 352 331 284 248 243 241 233 211 127 88 59 13 293 221 162 280 262 273 136 161 182 199 217 218 210 214 215 215 215 212 211 205 198 177 164 169 171 179 183 177 179 183 182 185 194 197 196 195 194 193 187 183 184 181 178 180 181 180 177 170 166 160 148 137 130 125 115 102 97 95 95 97 101 108 111 108 124
242 246 218 55 36 53 102 178 232 283 261 243 238 232 225 232 209 107 91 82 32 294 215 145 268 247 234 233 152 172 204 218 219 215 215 216 221 226 223 220 212 202 177 163 168 173 181 186 180 180 184 185 188 193 194 194 194 193 193 190 187 185 183 183 184 183 180 173 166 163 155 143 136 128 124 120 111 105 101 96 92 88 85 89 89 94
223 236 121 95 78 108 144 184 201 219 229 227 230 234 228 220 193 118 123 131 65 287 255 184 274 257 236 238 177 181 206 214 219 223 222 220 223 228 229 227 220 209 193 179 177 178 185 189 185 184 188 191 192 191 191 191 190 189 191 192 190 187 184 185 187 187 179 168 157 150 147 136 129 122 109 107 110 111 106 99 91 87 84 90 94 92
230 149 108 109 147 169 166 179 199 209 215 222 224 231 225 175 225 196 143 146 135 292 294 302 278 266 240 225 207 191 197 193 206 228 234 235 234 236 239 236 227 217 207 197 189 182 186 190 189 191 192 190 190 189 188 188 188 187 190 192 190 187 185 186 189 187 174 168 160 147 142 132 126 125 119 114 115 113 109 102 92 88 92 100 100 95
271 89 102 143 185 207 193 176 202 224 211 207 226 244 243 165 243 270 117 154 195 190 268 281 263 255 230 221 212 180 183 198 200 214 224 232 239 243 249 245 238 232 223 213 200 189 188 192 194 196 193 187 188 189 188 188 187 187 188 190 189 185 186 188 189 185 175 172 165 153 150 144 135 134 138 136 130 126 120 110 97 94 101 104 101 96
94 87 133 198 199 220 214 196 207 235 237 202 209 233 251 237 229 258 251 237 240 202 179 287 270 251 196 216 213 169 182 199 195 205 213 213 220 229 238 240 240 239 236 229 216 201 195 196 195 196 193 189 190 192 189 188 188 187 187 189 187 184 186 188 190 189 182 178 171 163 163 160 154 151 152 148 140 138 129 118 110 106 107 105 101 97
95 114 189 219 220 215 224 228 196 217 252 225 186 206 225 235 221 228 232 236 258 246 128 270 275 270 194 202 183 169 196 193 177 184 201 206 211 220 229 232 235 236 236 236 229 218 207 199 196 195 193 192 193 191 187 186 187 186 185 187 187 184 187 188 190 193 188 185 182 176 174 167 160 154 148 144 139 138 131 124 122 117 115 112 106 101
126 150 179 216 234 224 231 233 178 210 247 261 124 189 205 212 210 217 231 238 269 304 199 218 256 275 254 213 153 171 210 198 177 166 168 191 208 220 233 236 239 242 240 238 234 229 220 209 202 198 194 194 193 187 183 184 185 185 185 188 189 187 187 188 192 194 190 191 189 184 180 170 163 152 144 146 142 138 135 130 129 126 124 119 113 107
155 190 198 221 241 238 241 36 152 216 237 46 78 194 200 205 209 218 242 251 262 290 254 217 216 257 256 215 159 185 217 213 191 168 156 168 185 209 238 256 265 265 261 254 245 237 228 218 211 204 197 194 191 186 185 185 183 183 184 188 191 190 188 189 194 195 193 194 193 189 185 173 164 154 148 153 150 146 143 137 133 131 128 124 118 113
156 219 247 246 252 251 282 47 49 231 226 93 140 174 174 190 209 226 251 262 234 252 267 231 189 258 266 223 191 194 217 219 188 164 151 139 148 178 266 289 286 280 272 264 257 251 237 226 217 208 199 191 188 186 185 183 181 182 184 189 192 192 189 190 196 197 195 196 196 194 190 179 169 162 159 161 157 155 154 145 141 139 137 134 128 122
140 132 143 248 257 295 56 66 29 282 160 145 178 188 188 194 207 225 245 270 257 249 257 194 177 256 272 239 211 181 59 17 72 166 105 55 14 360 355 330 319 311 298 280 267 258 243 230 219 208 197 187 183 181 180 181 182 182 185 189 190 192 191 192 196 197 196 198 199 198 194 185 176 170 169 171 167 166 165 158 152 149 147 143 139 134
186 193 181 202 232 246 189 163 118 139 184 191 209 219 219 211 214 235 228 221 251 255 201 119 166 233 254 245 167 102 71 48 355 310 349 344 337 348 345 336 336 329 318 304 285 266 239 220 205 199 194 185 180 178 179 182 182 183 186 187 188 193 194 192 194 197 198 199 202 202 199 191 184 178 177 180 179 176 173 169 163 157 156 153 151 147
227 202 146 149 187 212 226 208 159 174 202 215 228 230 236 236 227 242 241 229 247 248 115 117 171 225 250 249 114 112 96 76 33 338 338 331 334 339 337 338 339 335 333 322 303 282 238 211 193 190 190 187 185 182 183 183 182 184 187 187 190 195 194 192 193 196 198 201 204 205 203 197 191 186 185 186 186 186 184 180 173 168 168 166 164 162
241 157 145 173 168 193 228 224 196 193 199 215 230 232 240 248 243 245 246 248 253 221 113 127 188 237 247 208 92 100 90 81 86 31 355 341 340 338 339 346 350 355 356 342 332 325 238 202 190 189 188 188 189 186 184 183 182 184 186 189 193 195 194 193 194 196 199 204 206 208 207 203 197 193 190 191 192 192 193 189 183 181 180 177 176 173
265 195 157 178 125 168 222 244 283 289 218 222 242 247 249 254 256 260 259 259 262 229 124 140 188 247 245 120 86 97 108 109 114 93 64 16 357 353 354 1 5 14 16 7 12 26 50 160 169 177 178 180 185 183 182 182 183 185 186 190 195 195 194 193 194 198 201 205 207 210 211 208 204 200 197 198 199 196 197 195 189 188 189 186 182 178
265 254 101 81 76 175 225 255 292 282 245 220 237 247 254 261 257 265 288 309 304 288 212 184 220 256 205 120 119 133 137 133 127 116 107 74 50 34 24 22 20 24 27 24 32 44 55 108 139 150 158 165 172 175 178 181 184 187 188 192 196 196 194 193 196 199 202 206 208 211 214 213 209 207 203 201 199 197 199 199 196 194 193 190 185 180
256 248 103 110 139 143 301 301 227 258 265 203 229 243 255 299 269 261 241 98 306 272 259 234 241 242 198 166 153 152 152 146 142 133 113 85 71 62 44 30 26 31 33 33 41 49 55 79 105 121 141 158 169 172 176 182 185 188 191 194 195 195 194 194 198 201 203 207 210 213 217 218 216 214 212 205 198 199 204 205 203 201 195 190 185 180
280 269 161 172 184 111 52 277 214 236 269 252 243 242 158 241 254 251 255 234 230 256 257 233 238 243 244 214 155 162 170 160 153 140 122 106 88 73 55 38 32 34 35 43 52 53 54 61 71 85 106 129 153 167 176 183 186 190 195 196 195 197 198 199 201 203 205 208 212 216 219 221 222 221 219 214 206 205 209 209 206 204 199 192 187 182
287 269 211 164 220 129 145 234 225 194 231 265 288 298 226 249 243 226 245 254 248 257 258 241 239 243 252 229 162 176 183 166 156 147 135 119 94 74 58 43 37 35 34 44 53 53 53 55 60 68 78 90 103 119 141 162 178 190 199 203 203 205 207 207 206 207 208 211 216 219 221 222 224 226 225 221 216 211 211 211 208 205 202 197 191 186
242 267 248 130 120 161 202 227 239 208 192 227 261 245 238 268 271 252 250 258 261 263 263 259 252 246 255 245 194 191 183 168 161 151 137 114 89 71 57 43 36 39 37 42 53 58 59 59 60 63 68 77 83 88 102 116 131 161 191 205 211 215 216 217 215 213 213 216 221 225 225 225 226 229 229 226 223 219 216 213 209 206 205 202 197 192
218 248 259 196 140 223 239 222 275 292 233 221 234 232 227 234 260 267 256 250 259 265 264 266 264 259 283 315 228 194 171 161 159 148 133 114 95 78 64 50 42 45 42 44 55 61 66 69 70 69 69 72 72 71 79 89 93 97 112 172 211 220 226 227 226 225 225 223 227 231 231 232 233 234 233 230 229 228 224 218 212 209 207 204 202 197
270 245 258 264 235 245 254 73 12 341 329 290 269 253 249 245 247 256 253 244 246 261 266 267 270 274 41 32 259 169 155 152 150 142 131 119 106 93 78 66 59 55 51 52 56 61 67 71 75 77 76 76 75 71 68 70 73 74 74 79 115 190 221 239 236 237 240 235 233 235 237 239 241 241 239 236 234 233 230 225 219 213 209 205 204 201
340 270 259 263 258 265 336 72 49 323 306 289 280 275 276 265 253 254 258 261 254 257 267 266 268 277 86 74 77 128 140 140 139 140 136 126 114 109 101 89 81 72 65 63 61 63 66 69 72 74 74 75 75 74 71 70 71 69 67 66 65 81 93 89 250 244 250 248 243 243 244 245 246 246 244 241 239 237 234 230 225 219 214 211 207 204
206 256 256 256 254 261 254 138 152 182 246 259 250 253 274 274 272 274 279 287 274 260 261 258 257 249 107 99 106 121 128 129 135 145 144 135 126 123 118 107 97 89 82 76 70 69 70 71 70 68 68 69 69 70 70 70 70 69 67 65 54 55 63 62 48 264 254 257 256 253 251 250 252 254 253 250 247 241 236 232 228 224 222 218 213 209
243 251 253 264 260 249 230 205 193 192 215 246 251 251 281 280 282 286 280 278 265 260 262 259 262 257 117 124 155 148 146 148 149 154 149 144 141 137 127 119 113 105 97 88 80 75 71 69 69 66 65 66 67 68 67 67 66 64 63 60 49 44 48 50 46 38 360 292 278 274 266 258 256 258 259 260 258 249 240 237 234 229 227 224 219 215
260 269 259 264 262 254 249 244 237 242 237 238 247 251 262 269 269 271 269 259 250 258 259 253 264 267 129 146 178 171 169 167 156 158 160 153 150 145 136 132 127 117 108 97 88 82 75 70 69 69 66 66 67 68 69 69 68 64 59 53 46 42 40 39 40 36 22 358 326 299 284 270 261 260 259 259 260 255 247 244 242 236 231 227 224 220
257 266 255 257 262 266 274 280 329 343 298 273 267 257 246 250 260 265 265 258 260 266 254 246 261 265 204 182 192 183 184 184 169 172 175 163 156 152 144 140 133 123 113 102 94 89 84 77 70 68 67 65 64 65 65 65 64 62 59 52 47 44 37 33 35 33 20 7 356 334 310 292 281 274 265 257 256 255 252 249 247 244 239 232 227 222
254 254 251 254 259 267 277 283 297 307 284 277 278 272 264 257 250 250 253 262 276 274 259 259 266 261 248 234 220 199 190 190 183 184 183 172 166 160 151 149 144 136 122 106 93 84 79 76 71 65 63 62 60 59 59 60 60 61 58 53 48 44 38 33 31 28 19 9 357 346 334 322 311 291 272 261 256 256 254 252 252 250 247 241 232 225
264 262 259 257 260 265 270 271 271 270 267 268 270 269 269 263 254 250 250 256 264 262 262 279 279 262 257 266 259 229 206 204 199 193 186 174 169 166 163 165 159 149 137 115 96 82 72 67 63 58 53 49 46 44 44 45 48 50 47 44 39 36 34 29 23 17 9 1 349 335 326 318 309 296 282 272 263 258 256 253 253 252 250 247 240 232
279 274 269 267 269 270 268 265 261 259 259 260 260 258 260 259 257 256 255 255 258 258 262 275 277 267 261 275 282 262 219 221 212 194 184 178 175 172 171 173 165 154 143 122 101 88 76 66 62 56 48 39 30 26 25 23 22 24 27 26 20 17 17 11 7 5 354 346 337 322 310 302 299 295 292 290 281 272 262 255 252 251 250 248 243 236
258 281 297 280 275 272 269 266 259 256 258 260 258 256 256 257 255 254 256 257 257 260 264 266 267 265 258 263 270 270 198 225 209 191 189 186 181 177 178 178 169 157 147 130 115 103 91 77 64 50 38 33 25 17 14 10 4 6 11 10 5 1 359 354 353 350 342 335 327 318 308 302 300 298 298 296 291 285 275 262 254 249 248 247 242 238
246 267 273 270 269 270 271 266 261 266 270 266 261 255 251 251 252 252 253 252 248 254 261 260 260 266 264 252 245 226 212 224 219 210 202 189 183 185 184 179 169 158 146 133 121 108 90 73 60 43 23 16 12 5 2 355 346 349 353 352 350 347 343 343 339 333 331 327 321 315 311 308 306 304 302 298 292 287 279 269 259 247 242 242 238 234
259 269 271 266 268 275 276 271 277 285 278 269 264 252 245 248 254 256 254 249 244 246 254 257 262 288 318 270 250 250 248 245 241 233 214 193 186 188 187 179 169 157 143 131 117 97 76 52 40 29 9 356 353 349 344 337 332 334 337 335 336 334 330 329 326 321 319 317 315 312 308 306 305 302 301 298 293 286 276 267 258 248 245 242 236 231
255 262 269 267 267 271 272 278 288 274 263 266 16 34 266 269 273 271 266 264 262 263 274 280 279 291 305 283 271 277 276 269 258 218 190 188 186 186 185 181 169 155 143 126 93 64 49 27 10 2 349 339 338 334 326 321 318 317 318 319 322 324 324 324 323 319 313 310 311 309 303 300 298 296 295 292 289 283 273 265 256 249 247 245 239 235
248 251 259 259 261 267 271 263 257 258 259 74 77 68 12 310 299 289 283 291 313 311 303 297 291 290 290 278 273 283 292 301 143 156 163 168 173 182 190 191 187 183 182 146 31 14 8 358 343 334 329 324 322 316 309 307 307 305 305 311 317 320 323 323 322 319 313 308 306 304 301 297 292 289 287 285 282 277 269 263 255 248 245 243 242 239
247 249 253 252 249 254 254 242 245 263 340 350 211 61 15 277 274 281 264 216 41 358 324 315 312 318 326 306 264 260 218 172 165 159 144 128 117 132 175 193 210 215 230 305 340 343 339 332 323 319 316 312 309 306 304 304 304 303 304 309 314 317 321 320 317 315 312 308 304 302 299 296 291 286 282 280 276 271 264 259 253 249 243 240 242 238
240 246 246 245 245 248 254 255 257 273 285 271 246 63 25 308 316 309 273 212 73 37 8 6 6 8 6 16 96 216 202 192 180 152 127 114 100 85 82 62 14 302 295 312 318 321 320 316 314 313 311 308 305 303 302 301 299 298 298 301 306 310 314 314 311 311 309 305 303 301 298 295 291 286 281 277 274 268 262 257 252 248 242 239 238 234
226 242 246 248 247 246 258 267 266 267 273 282 90 75 38 344 328 305 274 239 94 61 24 8 16 20 10 7 1 286 222 219 212 170 122 97 79 59 25 7 358 326 315 316 315 313 312 312 310 307 305 300 297 296 296 294 293 291 288 290 295 300 303 304 303 304 303 301 300 299 296 294 290 285 280 276 273 269 263 256 251 246 242 240 237 231
211 237 245 252 252 247 255 264 264 263 272 56 68 46 33 15 332 286 255 236 62 35 11 356 357 354 349 353 341 293 245 240 229 168 91 34 11 12 346 330 330 320 312 311 311 311 313 313 307 302 299 295 292 293 291 288 287 283 280 281 284 288 291 292 295 297 296 295 295 293 292 290 286 283 279 274 272 269 263 256 251 246 243 241 237 228
207 226 235 244 249 250 253 257 263 271 290 64 47 21 23 18 332 266 249 252 9 360 350 346 342 335 329 329 319 287 261 261 261 9 23 346 330 337 332 323 322 317 310 308 310 311 310 309 305 302 299 295 293 292 289 287 284 278 275 275 275 278 280 283 287 290 289 287 287 287 287 285 281 278 274 272 271 268 263 257 252 248 242 235 229 214
227 231 241 249 252 254 253 255 264 268 94 71 37 18 19 351 270 253 261 327 345 331 335 337 325 323 324 315 298 275 273 292 315 331 333 322 319 322 320 316 315 312 309 308 310 309 306 303 301 299 295 292 291 290 288 285 281 276 273 271 271 272 275 280 284 285 283 280 280 281 283 281 279 275 270 269 269 266 262 257 253 246 233 220 213 201
251 246 249 252 256 258 256 259 267 262 88 49 10 2 6 281 259 267 314 326 313 316 328 325 313 314 314 304 292 283 286 295 304 307 309 311 313 313 313 313 312 310 309 308 308 306 302 298 294 290 288 287 287 286 284 281 277 274 272 269 268 270 273 277 280 279 277 275 274 277 279 279 275 271 268 266 265 264 260 253 246 238 221 206 198 185
271 270 260 252 255 263 256 254 262 258 73 29 354 352 16 295 300 324 319 303 303 313 317 314 313 312 302 292 286 284 284 285 289 293 299 303 305 306 307 308 307 306 306 305 303 301 298 292 287 284 283 282 281 279 278 275 273 271 268 265 266 268 271 274 275 273 272 270 269 271 274 275 273 268 263 262 261 259 253 239 228 220 206 193 181 168
261 263 271 266 257 259 252 252 275 312 33 3 332 319 313 306 307 312 305 299 303 305 303 304 310 309 300 289 284 285 285 282 282 286 289 291 293 295 296 297 297 298 298 297 295 295 292 287 282 281 279 277 274 272 270 269 269 268 265 264 265 266 267 269 269 268 266 264 263 264 268 272 271 265 260 259 257 252 237 213 200 195 188 180 169 160
273 297 293 282 268 271 272 279 302 308 301 307 311 304 299 296 295 297 296 294 295 296 297 298 299 302 301 291 285 286 284 283 284 286 286 287 286 285 287 288 290 290 290 289 288 287 285 282 280 280 279 276 273 269 265 263 265 265 263 263 263 262 263 264 264 262 261 259 257 259 264 269 267 261 260 258 247 231 212 194 183 174 171 169 162 155
291 307 293 279 278 284 278 273 281 286 288 296 299 296 294 292 289 291 291 291 292 293 294 295 294 296 295 290 286 283 279 280 283 283 282 283 284 284 286 286 286 286 285 285 284 284 282 280 279 279 278 276 273 269 265 262 261 261 262 262 259 258 259 261 260 258 257 257 256 258 262 263 260 257 257 248 228 216 203 188 175 165 162 161 157 152
292 342 296 277 277 282 278 270 278 285 290 296 296 293 292 289 285 287 288 290 293 291 290 292 294 293 290 286 282 279 278 280 281 280 281 282 282 284 285 285 286 286 286 285 286 286 283 280 279 279 277 276 274 270 267 264 261 260 261 260 259 259 258 258 258 258 257 256 256 255 254 253 253 253 247 221 208 204 192 178 170 160 154 154 153 149
8 37 303 280 276 278 280 283 288 288 289 292 292 290 290 291 293 295 292 291 291 289 286 285 285 286 286 284 282 281 281 280 280 281 282 283 283 285 285 285 287 287 286 286 286 285 283 281 280 279 278 277 276 274 271 268 265 263 263 262 260 260 258 258 258 257 257 256 253 248 245 244 242 237 220 196 192 188 177 169 161 150 148 151 149 142
314 301 288 289 287 280 278 284 291 293 292 291 291 291 293 296 300 301 299 296 291 287 284 283 281 280 280 281 282 283 281 281 281 283 284 284 286 286 286 288 289 289 288 288 287 285 284 282 281 281 280 280 280 279 276 273 269 267 265 264 263 261 259 258 255 253 253 252 247 243 242 238 226 207 189 176 167 159 153 148 142 135 136 142 141 136
288 286 294 296 286 281 288 299 304 302 294 291 294 296 298 300 301 300 299 298 294 291 290 288 284 281 277 276 277 278 279 280 283 284 285 286 286 287 289 290 290 288 287 288 288 288 286 284 283 283 283 282 282 281 279 277 275 272 269 266 264 261 257 254 251 249 248 245 243 243 240 225 202 180 166 156 146 138 134 135 137 139 142 142 141 141
299 298 302 296 287 287 295 301 302 297 290 290 295 298 299 302 302 299 297 297 297 298 299 296 291 286 281 277 277 277 278 282 285 286 287 287 287 289 289 288 288 289 290 291 292 291 289 288 286 285 284 283 283 282 280 278 276 273 270 267 263 257 254 251 250 249 246 243 243 240 222 195 177 162 152 147 141 135 131 127 130 142 151 152 152 150
Height
769 772 770 767 765 766 769 769 768 767 767 766 765 763 761 761 759 757 761 761 760 763 758 758 761 758 757 755 755 758 759 760 759 760 761 761 760 760 760 760 760 763 765 768 773 776 779 781 783 785 787 789 791 793 794 796 798 800 801 803 804 806 807 809 810 811 812 812 813 814 815 815 816 817 818 818 819 819 820 820 821 821 821 821 821 821
772 773 768 765 767 770 771 772 772 771 770 769 767 764 763 762 759 757 763 763 762 765 759 759 762 758 755 755 755 758 760 760 759 759 761 760 760 760 759 760 760 762 764 767 772 775 777 780 782 784 786 788 790 791 793 795 797 799 801 802 803 805 806 808 809 810 811 812 813 814 814 815 816 817 818 819 820 820 821 821 821 821 822 822 822 822
774 770 766 767 770 772 774 773 773 772 771 770 766 765 765 760 758 761 765 763 763 766 760 759 763 757 753 753 754 756 758 757 756 757 758 758 759 759 759 760 760 762 764 767 770 773 775 777 780 782 784 786 788 790 792 794 796 798 799 801 803 804 806 808 809 810 811 812 813 814 814 815 816 817 818 819 820 821 821 822 822 822 822 822 822 822
771 765 765 769 771 773 775 775 774 772 770 768 765 766 766 761 763 767 767 766 765 767 763 762 765 758 752 753 753 754 755 755 757 757 756 757 758 758 757 758 759 761 763 765 768 770 772 775 777 779 781 783 786 788 790 792 794 796 798 800 801 803 806 807 809 810 811 812 813 814 815 816 816 818 819 820 821 822 822 822 823 823 823 823 823 823
766 765 767 770 772 772 774 775 774 771 767 767 767 765 763 763 766 765 765 766 765 768 767 764 768 759 749 753 752 751 755 756 757 757 757 758 757 758 758 757 758 759 760 762 765 767 769 771 773 775 778 781 783 786 787 790 792 794 796 798 800 803 805 807 808 810 811 812 813 814 815 816 816 818 819 820 821 822 822 823 823 823 823 823 824 824
765 771 771 771 773 770 772 772 769 768 766 766 767 764 762 763 766 765 766 768 769 772 768 767 776 765 748 751 752 750 755 755 755 756 756 757 757 758 759 758 758 758 758 759 760 762 764 767 769 772 775 778 780 783 785 788 790 792 795 797 799 801 804 806 807 809 810 812 813 813 814 815 816 817 818 819 821 822 822 823 823 823 824 824 824 824
766 773 772 772 772 771 771 768 764 766 766 766 763 759 760 762 766 768 767 770 772 771 768 767 777 772 756 753 752 751 754 753 754 757 756 755 755 756 756 756 756 757 757 757 758 759 760 763 766 769 772 774 777 780 783 786 788 791 794 796 798 800 802 804 806 808 810 811 812 813 813 814 815 816 818 819 821 822 822 823 824 824 824 825 825 825
767 771 773 772 771 770 768 763 762 763 764 767 762 757 760 762 766 768 767 769 766 765 768 765 768 774 767 756 751 753 755 752 753 757 757 755 755 755 754 754 754 754 755 756 757 757 758 761 763 765 768 771 775 778 781 784 786 789 792 794 796 799 801 803 805 807 809 810 811 812 813 813 814 815 817 819 820 822 823 824 824 825 825 825 826 826
767 770 772 770 771 768 760 757 760 762 764 768 764 759 759 761 764 765 764 766 764 771 776 764 764 778 771 755 752 754 755 754 753 755 756 756 756 756 755 755 754 754 754 754 755 755 756 758 760 763 766 769 773 776 779 781 784 787 790 793 795 797 800 801 803 806 807 809 810 811 812 813 814 815 817 819 820 822 823 824 825 825 826 826 826 827
766 767 766 767 769 764 757 759 761 761 764 766 764 761 760 762 763 765 765 762 767 781 780 765 767 779 772 756 754 756 756 755 753 753 754 754 755 755 756 757 756 755 755 754 754 754 754 756 759 761 764 767 771 774 777 780 782 786 788 791 794 796 798 800 802 804 806 808 810 811 811 812 813 815 816 818 819 821 822 823 824 825 826 826 827 827
763 766 767 766 764 759 759 765 766 764 764 764 763 762 763 764 762 764 763 762 775 784 774 765 767 777 777 761 752 757 758 757 757 756 755 755 755 755 756 756 755 755 754 754 753 752 753 755 757 760 762 765 768 771 775 778 780 783 786 789 792 794 797 799 800 803 805 807 808 809 810 811 812 813 815 817 818 820 821 822 824 825 826 826 827 827
761 765 765 761 760 760 761 765 767 766 764 764 763 763 769 770 768 770 767 771 787 785 771 766 766 776 782 764 751 757 758 758 761 760 759 759 757 757 757 756 755 755 754 753 753 752 752 754 756 759 761 764 767 769 772 776 778 781 784 787 790 793 795 797 799 801 804 805 807 808 810 811 812 813 814 816 818 819 820 822 823 824 825 826 827 827
758 756 756 759 760 760 762 764 767 767 765 765 764 767 778 781 781 783 777 776 781 776 768 768 770 778 775 758 754 759 758 759 763 762 762 762 761 760 759 758 756 755 754 753 752 752 751 752 754 757 760 763 765 768 770 774 777 780 783 786 788 791 793 795 797 800 802 804 805 807 809 810 811 812 814 815 817 818 820 821 822 823 824 825 826 827
761 754 754 760 761 758 759 761 765 766 764 765 764 769 780 783 788 791 781 775 774 771 768 768 775 780 767 755 757 759 760 762 762 762 763 763 763 763 760 757 756 755 754 754 752 752 752 752 755 757 759 762 764 767 769 772 776 779 782 784 787 790 792 794 796 798 801 802 804 806 808 809 810 811 813 814 816 817 818 820 821 822 823 824 825 826
771 767 759 759 761 760 759 756 757 758 759 760 755 760 771 775 783 788 780 776 773 770 773 776 780 776 766 763 761 759 761 761 761 762 763 764 763 762 760 758 757 756 755 755 754 754 754 754 756 758 759 762 765 767 770 772 775 777 780 783 786 788 790 792 794 797 799 801 803 805 806 808 809 810 811 812 814 815 817 818 820 821 822 823 824 826
773 769 758 758 760 759 758 754 753 757 760 757 751 759 767 762 766 777 780 780 778 777 777 778 774 762 758 763 759 758 761 760 762 763 762 764 763 762 762 761 760 759 757 757 756 756 757 756 758 759 760 763 765 768 770 772 775 777 780 783 785 787 789 791 793 795 797 799 801 803 804 806 807 808 809 810 812 813 815 817 818 819 821 822 823 824
774 767 755 758 760 757 759 757 754 759 762 760 760 763 759 751 756 773 783 785 787 788 776 769 768 759 757 763 757 758 762 760 763 763 762 765 764 763 765 763 763 762 760 760 759 758 759 758 759 760 762 764 766 768 770 772 775 777 780 782 784 786 788 790 792 794 796 798 799 801 802 804 805 806 808 809 810 811 813 814 816 817 819 820 821 823
773 769 755 755 761 760 759 758 755 756 758 761 764 759 752 753 758 767 780 783 785 788 773 764 771 767 763 766 760 758 762 762 762 763 764 765 764 765 767 766 766 764 763 763 762 762 762 761 761 761 763 765 767 769 771 773 775 777 780 782 784 786 787 789 791 793 795 796 798 799 800 802 803 805 806 807 808 809 810 812 814 815 817 818 819 821
774 774 760 754 761 760 757 760 760 757 755 757 758 753 756 769 769 767 779 783 782 785 775 765 768 765 759 761 761 760 761 762 763 763 764 765 766 768 769 769 769 767 767 765 764 765 765 764 764 764 765 767 768 770 772 774 776 778 780 782 784 786 787 789 791 792 794 795 796 797 798 800 802 803 804 806 806 807 808 809 811 813 815 816 818 819
773 778 771 756 757 760 757 759 762 759 756 757 757 753 756 765 768 766 772 774 776 782 778 771 768 762 751 746 749 755 756 759 763 763 765 767 769 771 772 772 772 771 770 768 767 768 768 768 768 768 769 769 769 772 773 774 776 778 781 782 784 786 787 789 791 792 793 794 795 796 797 799 800 801 803 804 805 805 806 807 809 810 812 814 816 817
771 780 779 761 755 762 760 758 759 758 757 759 761 760 760 761 762 764 764 761 768 777 778 779 774 760 749 743 743 747 752 756 761 763 766 769 771 773 775 775 774 774 774 772 770 770 770 771 771 772 772 771 772 774 775 775 777 779 781 782 784 786 787 789 790 791 793 793 794 795 796 798 799 800 801 802 803 804 805 806 807 808 810 811 813 814
774 778 780 770 763 764 760 758 760 762 762 761 760 758 758 759 764 772 771 760 761 768 769 774 773 759 752 751 745 745 752 757 759 763 767 770 772 775 776 777 777 776 776 775 774 772 772 773 773 774 775 774 774 776 777 777 778 780 782 783 785 786 787 788 789 791 792 792 793 794 795 797 798 799 800 800 801 802 803 804 805 806 807 808 810 811
779 778 778 777 769 761 758 761 765 766 764 763 762 758 756 758 762 772 775 764 763 765 761 767 771 762 756 756 751 751 756 758 760 763 767 770 774 776 777 778 778 778 778 777 776 775 775 775 775 776 776 776 776 777 779 780 781 782 783 784 787 787 786 787 788 789 791 792 793 793 794 795 797 798 799 799 800 800 801 802 803 804 805 806 807 808
782 779 778 777 766 756 757 760 763 766 767 766 763 760 761 761 760 765 767 765 768 768 765 772 773 763 759 760 759 760 760 761 764 765 767 772 775 776 777 778 779 779 779 778 778 777 776 776 777 777 777 778 779 780 781 782 783 784 785 787 790 788 785 786 788 789 790 791 792 792 793 793 795 797 798 798 799 799 800 800 801 802 803 804 805 806
782 779 779 782 777 771 769 767 766 767 766 765 762 763 766 764 763 767 766 766 773 768 764 773 770 759 760 763 761 762 762 763 766 766 768 772 775 776 777 778 779 780 779 779 779 779 778 778 778 779 779 780 781 782 783 784 785 786 787 788 789 788 785 786 788 788 789 790 791 791 792 792 793 794 796 798 798 797 798 798 799 800 800 802 803 804
781 778 780 786 787 785 781 774 771 768 764 764 765 768 770 768 768 772 769 771 775 767 762 770 766 757 761 765 763 764 765 765 767 769 769 771 774 776 777 778 779 780 780 780 781 781 781 781 780 781 782 782 783 784 785 786 786 787 788 789 789 788 787 787 787 786 788 789 789 790 791 791 791 791 793 796 797 796 796 796 797 798 798 799 800 801
781 780 780 782 782 779 774 767 767 771 771 770 769 769 769 771 771 772 773 772 770 766 765 764 760 758 762 763 763 765 765 765 767 769 770 771 774 776 777 779 779 779 780 781 781 782 782 783 783 784 784 785 785 786 786 786 787 788 789 790 790 790 789 789 788 787 788 789 789 790 790 790 789 789 791 793 794 794 793 793 795 796 796 796 797 798
783 783 780 780 779 775 770 767 768 774 776 774 772 771 770 771 772 775 777 771 766 769 769 758 755 762 761 756 759 763 764 764 766 768 769 771 774 776 778 779 780 780 780 781 781 782 782 783 785 785 786 786 786 787 787 788 788 789 790 791 791 791 790 790 789 789 790 790 790 790 789 789 789 789 791 792 791 791 790 791 792 793 794 794 794 795
785 784 778 778 780 776 772 772 772 775 776 774 773 774 773 772 773 776 777 771 768 773 771 759 759 764 761 754 754 757 760 762 763 764 766 769 773 775 777 779 779 780 780 781 782 783 783 784 785 786 786 786 787 787 788 788 789 789 790 790 791 791 790 790 790 790 790 790 790 790 790 790 789 789 790 790 789 788 787 788 789 790 791 792 792 792
786 784 779 779 781 777 773 772 772 774 776 775 773 773 772 772 772 772 772 770 768 769 766 763 765 765 762 757 754 754 758 760 761 763 766 770 773 775 776 778 778 780 781 782 783 783 784 785 785 786 787 787 787 788 788 788 788 788 789 790 790 790 790 790 790 790 790 790 790 790 790 789 789 788 787 787 786 785 785 785 786 787 788 789 790 790
789 787 783 784 784 780 775 771 771 773 773 773 772 770 769 770 770 771 771 770 770 769 766 768 771 769 763 757 755 758 760 761 762 765 768 770 771 774 776 777 778 779 781 782 784 784 785 786 786 787 787 788 789 789 789 789 789 789 789 790 790 791 790 790 790 789 790 789 789 789 788 788 787 786 785 784 783 783 783 783 784 784 785 786 787 788
789 787 784 787 788 782 774 772 772 772 772 772 771 770 771 772 771 771 770 770 772 773 772 772 772 768 761 755 755 759 761 762 763 764 767 769 771 772 775 776 777 779 781 782 783 784 785 786 787 788 788 788 789 789 789 789 789 789 790 790 791 791 791 790 790 789 789 789 788 787 786 785 784 783 783 782 782 782 781 782 782 782 782 783 784 786
788 787 785 786 787 782 776 775 777 779 780 777 771 769 771 771 770 768 767 766 767 770 772 771 767 764 761 758 757 758 759 760 760 761 765 769 770 772 773 775 777 779 781 782 783 784 786 786 787 788 789 789 789 789 789 789 789 789 789 790 790 790 790 790 789 788 788 787 786 785 784 783 782 782 781 781 780 780 780 780 780 780 780 781 782 783
789 790 787 784 786 784 778 779 787 790 786 777 770 770 772 773 773 771 768 766 765 767 769 766 764 764 765 764 763 761 760 760 761 764 767 769 770 772 773 775 777 779 781 782 783 784 785 786 787 788 789 789 789 789 789 788 788 788 788 789 789 789 789 787 787 786 786 785 784 783 782 782 781 780 780 779 779 779 779 778 778 778 779 779 780 780
791 793 789 785 787 785 779 788 800 795 781 773 771 773 776 776 776 775 773 772 773 774 773 771 768 768 767 767 767 766 765 766 766 768 770 771 771 772 773 775 777 778 780 781 783 784 785 786 787 787 788 788 788 788 788 787 787 788 787 787 787 786 786 785 784 784 783 782 782 781 781 780 779 779 778 778 778 777 777 777 776 776 776 777 777 778
790 792 789 786 787 786 786 793 796 785 773 771 772 774 777 777 776 776 776 777 780 779 776 774 772 771 772 772 771 769 769 769 769 769 771 773 774 774 775 775 776 777 779 781 783 785 785 786 787 786 787 787 787 786 786 786 786 786 785 785 785 784 783 783 782 781 781 780 780 779 779 778 778 777 777 776 776 775 775 774 774 774 774 774 775 776
788 787 786 787 786 785 787 783 778 775 773 773 776 780 783 782 781 782 780 778 780 780 777 776 775 774 774 774 773 772 771 769 769 771 772 774 776 777 777 777 779 779 780 782 783 784 784 785 785 785 785 785 785 785 785 784 784 784 783 783 783 782 781 781 780 779 778 778 777 777 777 776 776 775 775 774 773 773 772 772 772 772 772 772 772 773
787 785 786 789 785 784 787 784 780 781 779 777 781 785 787 786 786 787 784 779 779 781 779 778 778 776 776 776 775 774 772 770 769 770 773 775 776 778 779 779 780 780 781 782 782 782 783 784 784 784 783 783 783 783 783 783 782 782 782 781 781 781 780 779 778 777 776 776 776 775 775 774 773 773 772 772 771 771 770 770 770 770 770 770 771 771
789 787 786 790 787 785 790 792 788 784 780 780 785 786 785 786 788 789 786 781 782 784 782 780 781 779 778 779 777 775 773 771 766 768 775 777 776 778 779 778 779 780 780 781 781 781 782 782 782 781 781 780 781 781 781 780 780 780 779 779 779 779 778 777 777 776 775 774 774 773 773 772 771 771 770 769 769 768 768 767 767 767 768 769 769 770
790 789 788 791 790 786 789 792 784 777 778 785 789 787 786 787 791 794 790 786 789 789 785 783 784 782 780 780 779 775 773 770 767 770 776 777 775 777 778 778 778 779 778 779 780 780 780 779 778 778 778 778 778 778 778 778 777 777 776 776 777 776 776 775 774 773 773 772 772 771 771 770 769 769 768 767 766 766 765 765 765 765 766 767 768 768
788 791 790 790 789 786 787 790 783 776 782 791 791 789 790 790 792 794 792 791 794 791 786 786 786 784 783 782 780 776 773 772 773 775 776 776 776 777 777 777 777 777 777 777 777 777 777 776 775 775 775 775 775 775 775 775 774 774 774 773 773 773 772 772 771 770 770 769 769 769 768 767 767 766 766 765 764 764 763 763 763 764 765 766 766 767
792 796 795 792 792 787 785 788 785 781 788 796 792 788 791 793 791 791 792 794 793 789 788 788 787 785 785 784 782 780 777 776 778 778 776 776 776 776 776 776 775 775 775 774 774 774 773 772 772 772 772 772 772 772 772 772 771 771 771 770 770 770 769 769 768 767 767 766 766 765 765 765 764 764 763 763 762 761 761 761 761 763 764 764 764 765
799 803 799 791 791 792 791 793 793 791 793 797 795 792 794 795 792 790 791 791 788 788 789 789 787 786 786 784 783 782 780 779 780 778 778 777 777 776 776 775 774 773 772 771 771 771 770 769 769 769 769 769 769 769 769 769 768 767 767 766 766 767 766 766 765 764 764 763 763 762 762 761 761 761 760 760 759 759 759 759 760 761 762 762 764 766
801 804 801 792 791 797 798 794 792 792 794 796 796 796 797 797 794 793 792 790 788 788 788 787 787 787 785 783 782 781 780 779 778 777 777 777 776 776 775 773 773 771 770 770 769 768 768 767 765 765 766 766 766 766 766 765 764 764 763 763 763 764 763 762 762 761 760 760 759 759 758 758 758 757 757 757 757 758 757 758 759 760 760 762 764 766
799 801 804 800 797 800 799 792 789 791 792 793 795 795 795 795 794 793 793 791 790 788 787 786 786 785 784 784 782 780 780 778 777 776 776 775 774 773 772 771 770 769 768 767 766 766 766 764 762 762 762 761 762 762 762 761 761 759 759 759 760 760 759 758 758 757 757 756 756 755 755 755 754 754 754 755 755 756 756 757 757 758 760 762 763 766
798 801 807 806 802 800 797 794 793 794 793 792 794 794 793 793 792 791 791 791 790 788 787 787 785 784 784 784 781 780 779 777 776 775 774 773 771 770 769 768 767 766 765 764 763 763 762 761 759 758 757 757 758 757 757 757 756 755 754 755 755 755 755 754 754 753 753 752 751 751 751 751 751 752 752 753 753 755 755 755 755 757 759 761 763 766
799 806 809 807 806 805 801 795 794 795 794 793 793 792 790 790 789 789 790 790 789 788 788 787 785 783 782 781 780 778 776 774 774 773 771 770 768 766 765 764 763 762 762 761 760 760 759 757 755 754 753 753 753 752 752 752 751 750 749 750 750 750 750 750 750 749 748 748 748 748 748 748 749 750 751 752 753 754 754 754 755 757 759 761 763 766
803 811 810 805 804 805 803 796 793 793 792 791 791 790 788 788 787 788 789 789 788 788 786 785 783 781 779 778 777 775 773 772 771 769 767 766 765 763 762 761 759 759 759 758 758 757 755 753 751 750 749 748 748 748 747 746 745 745 744 745 745 745 745 745 745 745 744 744 744 744 744 745 746 748 750 751 752 753 753 754 756 757 759 761 763 765
805 810 807 804 805 804 799 794 793 792 791 790 789 788 787 788 788 788 788 788 786 785 784 782 780 778 776 775 774 772 770 768 767 766 765 764 762 761 759 758 757 757 756 755 754 753 752 750 748 747 745 744 743 743 742 741 740 739 739 739 740 740 740 740 740 741 741 741 741 741 742 743 745 746 748 750 751 752 753 755 757 759 761 764 766 767
806 807 804 806 807 803 798 795 796 798 796 792 790 789 789 789 789 788 787 785 784 782 781 780 778 776 774 772 771 769 768 766 765 764 763 761 760 758 757 756 755 754 753 752 751 749 748 746 744 743 742 740 740 739 737 736 735 734 734 734 734 735 735 735 736 736 737 737 737 738 739 742 743 745 748 749 750 752 754 756 759 761 764 766 769 770
807 807 807 809 808 804 800 799 800 801 798 793 791 790 789 788 787 787 786 784 783 781 780 779 777 774 771 769 768 767 766 764 763 762 761 759 758 756 755 755 753 751 750 750 748 747 745 743 742 740 738 737 736 735 733 732 731 730 730 730 730 730 731 731 732 733 733 734 735 735 737 740 742 745 747 749 751 753 754 757 761 763 766 768 770 772